Regional Weather Roundup
Issued by NWS

Home | Current Version | Previous Version | Graphics & Text | Print | Product List | Glossary On
Versions: 1 2 3 4 5 6 7 8 9 10 11 12 13 14 15 16 17 18 19 20 21 22 23 24 25 26 27 28 29 30 31 32 33 34 35 36 37 38 39 40 41 42 43 44 45 46 47 48 49 50
000
ASUS45 KABQ 220410
RWRNM
NEW MEXICO REGIONAL WEATHER ROUNDUP
NATIONAL WEATHER SERVICE ALBUQUERQUE NM
900 PM MST TUE NOV 21 2017

NOTE: "FAIR" MEANS FEW OR NO CLOUDS BELOW 12,000 FEET AGL WITH NO
       SIGNIFICANT WEATHER OR OBSTRUCTIONS TO VISION.

      THIS PRODUCT IS RELEASED AS TWO VERSIONS.  ONE VERSION NEAR
      THE TOP OF THE HOUR CONTAINING PRELIMINARY DATA FROM ALBUQUERQUE
      AND OTHER STATIONS.  A FINAL VERSION WITH ADDITIONAL DATA IS
      ISSUED ABOUT 10 MINUTES AFTER THE HOUR.

NMZ501-503-504-510>518-220500-
NORTHWEST PLATEAU/NORTHCENTRAL MOUNTAINS

CITY           SKY/WX    TMP DP  RH WIND       PRES   REMARKS
FARMINGTON     FAIR      44  24  45 W7        30.33R
LOS ALAMOS     FAIR      44  20  38 SW9       30.43R
SANTA FE       FAIR      43  29  57 SE14      30.40R
TAOS           FAIR      40  19  43 NW7       30.43R
ANGEL FIRE     FAIR      25  21  83 CALM      30.43R

$$
NMZ402-403-502-505>509-220500-
WESTCENTRAL MOUNTAINS/SOUTHWEST MOUNTAINS

CITY           SKY/WX    TMP DP  RH WIND       PRES   REMARKS
GALLUP         FAIR      39  24  55 CALM      30.41R
GRANTS         FAIR      36  23  58 NW3       30.43R
SILVER CITY    FAIR      41  16  35 N7        30.32R

$$
NMZ407-409-411-412-220500-
SOUTHERN DESERTS

CITY           SKY/WX    TMP DP  RH WIND       PRES   REMARKS
DEMING         FAIR      55  20  25 NE7       30.29R
LAS CRUCES     FAIR      60  18  20 SE15G21   30.30R
HOLLOMAN AFB   FAIR      55  20  25 NW13      30.30R
ALAMOGORDO     FAIR      52  18  25 W3        30.28R
T OR C         FAIR      57  18  21 NE7       30.31R

$$
NMZ519>523-220500-
CENTRAL VALLEYS/CENTRAL HIGHLANDS

CITY           SKY/WX    TMP DP  RH WIND       PRES   REMARKS
ALBUQUERQUE    FAIR      53  25  33 E17       30.35R
DOUBLE EAGLE   CLEAR     45  19  36 CALM      30.38R
MORIARTY ARPT  FAIR      38  20  47 W5        30.43R WCI  35
CLINES CORNERS FAIR      35  24  64 E7        30.43R WCI  29
BELEN          FAIR      49  17  28 S7        30.35S
SOCORRO        FAIR      46  15  28 CALM      30.34R

$$
NMZ524>526-539-540-220500-
SOUTHCENTRAL MOUNTAINS

CITY           SKY/WX    TMP DP  RH WIND       PRES   REMARKS
RUIDOSO        FAIR      41  16  36 SE6       30.46R

$$
NMZ527>531-220500-
NORTHEAST HIGHLANDS/NORTHEAST PLAINS

CITY           SKY/WX    TMP DP  RH WIND       PRES   REMARKS
LAS VEGAS      FAIR      35  27  72 SE10      30.43R WCI  27
RATON          FAIR      28  26  92 NW8       30.39R WCI  20
CLAYTON        FAIR      33  25  72 CALM      30.39R

$$
NMZ532>537-220500-
EASTCENTRAL PLAINS

CITY           SKY/WX    TMP DP  RH WIND       PRES   REMARKS
SANTA ROSA     FAIR      40  27  57 CALM      30.40R
TUCUMCARI      FAIR      41  26  55 CALM      30.39R
CANNON AFB     FAIR      37  26  66 NE7       30.43R WCI  31
CLOVIS AIRPORT FAIR      38  24  57 NE3       30.41R

$$
NMZ028-029-538-220500-
SOUTHEAST PLAINS

CITY           SKY/WX    TMP DP  RH WIND       PRES   REMARKS
ROSWELL        FAIR      50  30  46 E6        30.37R
ARTESIA        FAIR      50  27  40 NE6       30.37R
CARLSBAD       FAIR      51  30  44 N6        30.33R
HOBBS          FAIR      50  27  40 NE18      30.37R


$$



USA.gov is the U.S. government's official web portal to all federal, state and local government web resources and services.